Погода в Инге

Погода в Инге : погода сейчас, прогноз погоды и архив. Всё, что Вы хотите узнать о погоде в Инге!

Поиск расширенной информации на нашем сайте:

Другие новости

Новости СМИ2

Главная страница сайта

Новости сайта

03.07.2017

Напоминаем, что на нашем специализированном сайте Метеоцентр.Азия вы можете получить высокодетализированные автоматические прогнозы погоды по пунктам России, СНГ и мира в авиационном формате (включающие направление и скорость ветра, видимость, явления погоды, количество и форму облачности, нижнюю и верхнюю границу облачности).


Погода в Инге - сегодня

Время (UTC), дата Ветер
(°,м/с) 
Видим.   Явления Облачность Т
(°С)
Тd
(°С)
f(%) Тe
(°С)
Pmin
(гПа)
dP
(гПа)
Po
(мм)
O2
(г/м3)
Тmin Tmax R s Состояние
почвы
00 17.10.17 тихо ()   20000 м    10/4 600 м кучево-дожд., верхняя 
[Cb cap|Ci fib]
-5.9 -7.4 89 -6  1022.6  1.5  716  296  -7.8      мокрый или
старый снег
10-40% 
03 17.10.17 тихо ()   20000 м    10/4 600 м кучево-дожд., средняя, верхняя 
[Cb cap|Ac trans|Ci fib]
+3.1 -1 74 +3  1022.2  1.8  717  286           
06 17.10.17 320 (СЗ) 20000 м    4/1 600 м кучево-дожд., средняя 
[Cb cap|Ac trans]
+9.6 -0.1 51 +10  1020.7  717  279           
09 17.10.17 340 (С) 20000 м    10/10 600 м кучево-дожд. 
[Cb cap]
+9 +0.3 54 +9  1022.2  1.3  718  280           
12 17.10.17 тихо ()   н/о    10/10 600 м кучево-дожд. 
[Cb cap]
+3.6 +0.2 78 +4  1025.6  1.9  720  286    +10.1       
15 17.10.17 тихо ()   н/о  слаб. ливневой дождь  10/10 600 м кучево-дожд. 
[Cb cap]
+1.9 +0.3 89 +2  1027  720  288           
18 17.10.17 тихо ()   н/о  слаб. ливневой дождь  10/10 600 м кучево-дожд. 
[Cb cap]
+0.7 -0.5 92 +1  1027.5  0.1  720  290           
21 17.10.17 тихо ()   н/о    10/10 600 м кучево-дожд. 
[Cb cap]
-0.6 -1.5 94 -1  1027.3  -0.4  720  291           
00 18.10.17 тихо ()   20000 м    10/10 600 м кучево-дожд. 
[Cb cap]
-0.7 -1.6 94 -1  1027.5  0.2  720  291  -1.1    0.4  мокрый или
старый снег
10-40% 
03 18.10.17 тихо ()   20000 м    9/4 600 м кучево-дожд., средняя 
[Cb cap|Ac trans]
+3.2 +0.6 83 +3  1026.2  -0.3  720  287           
06 18.10.17 050 (СВ) 20000 м    3/3 1000 м верхняя 
[Cu hum|Ci sp]
+9.6 +0.2 52 +10  1022.5  -2.1  719  280           
09 18.10.17 070 (В) 20000 м    ясно 
+9.7 -0.3 50 +10  1020.4  -1.9  717  279           
12 18.10.17 тихо ()   н/о    ясно 
-2.2 -4.1 87 -2  1023  -0.3  717  292    +10.3       
15 18.10.17 тихо ()   н/о    ясно 
-4.1 -5.3 91 -4  1022.8  -0.6  716  294           
18 18.10.17 тихо ()   н/о    ясно 
-5.7 -6.8 92 -6  1022  -1.3  715  295           
21 18.10.17 тихо ()   н/о    ясно 
-7.5 -8.8 90 -8  1021.5  -0.8  715  297           
00 19.10.17 тихо ()   20000 м    10/10 600 м 
[St]
-4.7 -5.3 96 -5  1021.7  0.8  715  294  -7.6      мокрый или
старый снег
10-40% 
03 19.10.17 180 (Ю) 20000 м    10/10 600 м 
[St]
-1 -2.5 90 -2  1021.9  1.1  716  290           
06 19.10.17 180 (Ю) 20000 м    10/10 600 м кучево-дожд. 
[Cb cap]
+2.1 -1 80 +1  1021.8  0.6  717  287           
09 19.10.17 тихо ()   20000 м    10/10 600 м кучево-дожд. 
[Cb cap]
+2 -1.4 78 +2  1022.3  0.5  717  287           
12 19.10.17 тихо ()   н/о    6/1 600 м кучево-дожд., верхняя 
[Cb cap|Ci fib]
-1.1 -2.3 92 -1  1024.9  1.7  718  291    +3.6       
15 19.10.17 тихо ()   н/о    3/0 верхняя 
[Ci fib]
-4.3 -6.2 87 -4  1026.4  0.6  719  295           
18 19.10.17 тихо ()   н/о    3/0 средняя, верхняя 
[Ac As|Ci fib]
-1.9 -2.4 96 -2  1025.4  -0.3  719  292           
21 19.10.17 230 (ЮЗ) н/о  переохл. туман  8/0 средняя, верхняя 
[Ac As|Ci fib]
-1.9 -1.9 100 -3  1025.5  0.1  719  292           
00 20.10.17 230 (ЮЗ) 0500 м  переохл. туман  10/8 600 м кучево-дожд., средняя 
[Cb cap|Ac As]
-2.2 -2.5 98 -3  1024.9  -0.6  718  292  -4.5         
Время (UTC), дата Ветер
(°,м/с) 
Видим.   Явления Облачность Т
(°С)
Тd
(°С)
f(%) Тe
(°С)
Pmin
(гПа)
dP
(гПа)
Po
(мм)
O2
(г/м3)
Тmin Tmax R s Состояние
почвы

Для получения пояснительной информации подведите курсор к названию столбца.

ПОГОДА в Инге - архив

Всё, что Вы хотите узнать о погоде в Инге - удобно и подробно!

Выберите нужную дату (начиная с 1 января 2015* года) и нажмите кнопку "Найти".
Будут отображены архивные сводки погоды по пункту Инга, начиная с указанной даты.


Отображать данные в формате CSV (для использования в таблицах Excel)


Внимание! Наш архив погоды предназначен исключительно для личного некоммерческого использования в познавательных целях. Если Вам необходимы официальные справки о состоянии погоды (для производственных, юридических, коммерческих и т.п. целей), обращайтесь в органы Росгидромета.

*Примечание: данная дата относится к архиву по метеостанциям СССР (Россия, СНГ, Балтия).
Архив по метеостанциям Зарубежной Европы и Азии (кроме Китая) хранится 10 дней, по другим регионам земного шара (Китай, Африка, Америка, Австралия, Океания) - 1 день.

Инга - район местоположения метеостанции


Название, широта, долгота, высота метеостанции:
Инга 53°ш. 102°д. 543 м над ур. моря [Российская Федерация]

Дополнительная информация

В oтличие oт бoльшинства пoгoдных сайтoв мы публикуем пoдрoбную метеoинфoрмацию в детальнoм прoфессиoнальнoм фoрмате.

Характеристики температуры и влажнoсти вoздуха измеряются на высoте 2 м в тени вдали oт зданий и деревьев.
Скoрoсть ветра измеряется на высoте 10 м (на урoвне рoста челoвека скoрoсть ветра ниже в 1.5-2 раза). Если метеoстанция нахoдится в гoрoде или в лесу, тo скoрoсть ветра занижена на 2-4 м/с пo сравнению с oткрытым местoм. Скoрoсть ветра над акватoриями крупных рек и oзёр, а также на вершинах хoлмoв на 2-5 м/с выше, чем в oбычных услoвиях.
Атмoсфернoе давление в разных тoчках местнoсти мoжет значительнo oтличаться oт давления на метеoстанции, в зависимoсти oт услoвий рельефа (при пoдъёме на 10 м давление пoнижается примернo на 1 мм рт.ст.).